QXE2289 KMFR-KSEA

Flight info

Callsign QXE2289
Flight time 0h 55m
Altitude 17000
Route JKSN1 OED V595 CUTTR/N0422F310 RENAA/N0419F300 BTG HAWKZ8
Aircraft E75L/M-SDE3GILORVW/S

Departure

Time 2026-04-24 04:43
Airport Rogue Valley International-Medford Airport (KMFR)

Arrival

Time 2026-04-24 05:38
Airport Seattle–Tacoma International Airport (KSEA)
Time Latitude Longitude Altitude Speed Heading
2026-04-24 04:08 42.36935 -122.87355 1323 ft 0 kts 247°
2026-04-24 04:30 42.36936 -122.87351 1323 ft 3 kts 247°
2026-04-24 04:30 42.36946 -122.87318 1323 ft 4 kts 247°
2026-04-24 04:31 42.36956 -122.87284 1323 ft 4 kts 249°
2026-04-24 04:31 42.36965 -122.87250 1323 ft 4 kts 255°
2026-04-24 04:31 42.36966 -122.87216 1323 ft 4 kts 299°
2026-04-24 04:31 42.36960 -122.87208 1323 ft 0 kts 339°
2026-04-24 04:35 42.36969 -122.87213 1323 ft 4 kts 339°
2026-04-24 04:35 42.37032 -122.87245 1323 ft 15 kts 339°
2026-04-24 04:36 42.37131 -122.87296 1324 ft 15 kts 339°
2026-04-24 04:36 42.37239 -122.87353 1322 ft 21 kts 339°
2026-04-24 04:36 42.37383 -122.87430 1321 ft 23 kts 339°
2026-04-24 04:36 42.37541 -122.87513 1317 ft 23 kts 340°
2026-04-24 04:37 42.37677 -122.87583 1317 ft 24 kts 339°
2026-04-24 04:37 42.37852 -122.87676 1316 ft 27 kts 338°
2026-04-24 04:37 42.38032 -122.87770 1313 ft 29 kts 339°
2026-04-24 04:37 42.38226 -122.87871 1306 ft 28 kts 338°
2026-04-24 04:38 42.38394 -122.87959 1300 ft 26 kts 338°
2026-04-24 04:38 42.38511 -122.88021 1298 ft 12 kts 339°
2026-04-24 04:38 42.38570 -122.88031 1297 ft 0 kts 39°
2026-04-24 04:41 42.38571 -122.88031 1297 ft 1 kts 39°
2026-04-24 04:41 42.38572 -122.88030 1297 ft 1 kts 40°
2026-04-24 04:42 42.38594 -122.87977 1298 ft 8 kts 68°
2026-04-24 04:42 42.38572 -122.87903 1300 ft 17 kts 140°
2026-04-24 04:42 42.38304 -122.87754 1305 ft 79 kts 159°
2026-04-24 04:42 42.37559 -122.87366 1363 ft 144 kts 159°
2026-04-24 04:43 42.36559 -122.86852 1914 ft 166 kts 159°
2026-04-24 04:43 42.35425 -122.86335 2736 ft 172 kts 167°
2026-04-24 04:43 42.34237 -122.86430 3666 ft 174 kts 199°
2026-04-24 04:43 42.33160 -122.87186 4557 ft 177 kts 217°
2026-04-24 04:44 42.32258 -122.88318 5392 ft 179 kts 233°
2026-04-24 04:44 42.31616 -122.89781 6197 ft 187 kts 250°
2026-04-24 04:44 42.31324 -122.91525 7128 ft 193 kts 269°
2026-04-24 04:44 42.31445 -122.93404 7916 ft 218 kts 286°
2026-04-24 04:45 42.32113 -122.95331 8609 ft 244 kts 309°
2026-04-24 04:45 42.33454 -122.96865 9510 ft 264 kts 330°
2026-04-24 04:45 42.35258 -122.97627 10371 ft 288 kts 358°
2026-04-24 04:45 42.37243 -122.96927 11231 ft 309 kts 28°
2026-04-24 04:46 42.39071 -122.95281 12319 ft 320 kts 32°
2026-04-24 04:46 42.41007 -122.93735 13534 ft 327 kts 27°
2026-04-24 04:46 42.43035 -122.92293 14682 ft 332 kts 27°
2026-04-24 04:46 42.45102 -122.90853 15764 ft 336 kts 19°
2026-04-24 04:47 42.47384 -122.90437 16700 ft 344 kts 355°
2026-04-24 04:47 42.49823 -122.90992 17122 ft 367 kts 353°
2026-04-24 04:47 42.52487 -122.91020 17208 ft 399 kts
2026-04-24 04:47 42.55348 -122.90698 17415 ft 424 kts
2026-04-24 04:48 42.58223 -122.90399 17752 ft 399 kts
2026-04-24 04:48 42.60935 -122.90128 17320 ft 382 kts
2026-04-24 04:48 42.63537 -122.89878 17313 ft 370 kts
2026-04-24 04:48 42.66072 -122.89634 18353 ft 363 kts
2026-04-24 04:49 42.68601 -122.89396 18680 ft 378 kts
2026-04-24 04:49 42.71275 -122.89146 18401 ft 393 kts
2026-04-24 04:49 42.73963 -122.88894 19571 ft 382 kts
2026-04-24 04:49 42.76630 -122.88648 20297 ft 387 kts
2026-04-24 04:50 42.79327 -122.88399 20974 ft 390 kts
2026-04-24 04:50 42.82041 -122.88148 21638 ft 393 kts
2026-04-24 04:50 42.84783 -122.87895 22219 ft 397 kts
2026-04-24 04:50 42.87552 -122.87640 22776 ft 401 kts
2026-04-24 04:51 42.90356 -122.87382 23338 ft 406 kts
2026-04-24 04:51 42.93154 -122.87123 23854 ft 410 kts
2026-04-24 04:51 42.96017 -122.86858 24339 ft 415 kts
2026-04-24 04:51 42.98911 -122.86589 24842 ft 419 kts
2026-04-24 04:52 43.01825 -122.86319 25347 ft 421 kts
2026-04-24 04:52 43.04760 -122.86046 25857 ft 424 kts
2026-04-24 04:52 43.07708 -122.85773 26332 ft 426 kts
2026-04-24 04:52 43.10676 -122.85498 26826 ft 428 kts
2026-04-24 04:53 43.13650 -122.85224 27262 ft 430 kts
2026-04-24 04:53 43.16603 -122.84948 27663 ft 432 kts
2026-04-24 04:53 43.19619 -122.84669 28069 ft 435 kts
2026-04-24 04:53 43.22645 -122.84386 28473 ft 438 kts
2026-04-24 04:54 43.25689 -122.84103 28917 ft 439 kts
2026-04-24 04:54 43.28741 -122.83820 29289 ft 441 kts
2026-04-24 04:54 43.31815 -122.83531 29655 ft 444 kts
2026-04-24 04:54 43.34902 -122.83243 30005 ft 446 kts
2026-04-24 04:55 43.37957 -122.82958 30351 ft 447 kts
2026-04-24 04:55 43.41015 -122.82672 30841 ft 444 kts
2026-04-24 04:55 43.44074 -122.82387 31209 ft 439 kts
2026-04-24 04:55 43.47133 -122.82100 31171 ft 441 kts
2026-04-24 04:56 43.53245 -122.81525 31278 ft 437 kts
2026-04-24 04:56 43.56219 -122.81247 31215 ft 421 kts
2026-04-24 04:56 43.59102 -122.80972 30805 ft 411 kts
2026-04-24 04:57 43.61928 -122.80702 30330 ft 403 kts
2026-04-24 04:57 43.64693 -122.80437 30121 ft 393 kts
2026-04-24 04:57 43.67415 -122.80178 30173 ft 404 kts
2026-04-24 04:57 43.70265 -122.79908 30189 ft 416 kts
2026-04-24 04:58 43.76172 -122.79347 30132 ft 433 kts
2026-04-24 04:58 43.82211 -122.78773 30162 ft 437 kts
2026-04-24 04:59 43.88294 -122.78191 30157 ft 439 kts
2026-04-24 04:59 43.94347 -122.77613 30153 ft 439 kts
2026-04-24 05:00 44.00445 -122.77029 30157 ft 439 kts
2026-04-24 05:00 44.06521 -122.76445 30159 ft 435 kts
2026-04-24 05:01 44.12573 -122.75864 30159 ft 436 kts
2026-04-24 05:01 44.18579 -122.75286 30169 ft 435 kts
2026-04-24 05:02 44.24624 -122.74701 30170 ft 435 kts
2026-04-24 05:02 44.30671 -122.74116 30166 ft 436 kts
2026-04-24 05:03 44.36710 -122.73532 30152 ft 432 kts
2026-04-24 05:03 44.42658 -122.72954 30170 ft 432 kts
2026-04-24 05:04 44.48653 -122.72369 30175 ft 432 kts
2026-04-24 05:04 44.54651 -122.71785 30173 ft 432 kts
2026-04-24 05:05 44.60314 -122.71231 29765 ft 428 kts
2026-04-24 05:05 44.63264 -122.70947 30132 ft 427 kts
2026-04-24 05:05 44.66270 -122.70651 30027 ft 436 kts
2026-04-24 05:06 44.72359 -122.70054 30008 ft 446 kts
2026-04-24 05:06 44.78585 -122.69442 30015 ft 450 kts
2026-04-24 05:07 44.84848 -122.68825 29999 ft 453 kts
2026-04-24 05:07 44.91137 -122.68204 30002 ft 453 kts
2026-04-24 05:08 44.97388 -122.67585 30002 ft 453 kts
2026-04-24 05:08 45.03668 -122.66962 30001 ft 452 kts
2026-04-24 05:09 45.09933 -122.66339 30001 ft 451 kts
2026-04-24 05:09 45.16197 -122.65715 30011 ft 451 kts
2026-04-24 05:10 45.22457 -122.65086 30011 ft 451 kts
2026-04-24 05:10 45.28676 -122.64465 30002 ft 451 kts
2026-04-24 05:11 45.34932 -122.63839 29998 ft 451 kts
2026-04-24 05:11 45.41183 -122.63211 30001 ft 450 kts
2026-04-24 05:12 45.47431 -122.62582 30000 ft 450 kts
2026-04-24 05:12 45.53642 -122.61955 29998 ft 451 kts
2026-04-24 05:13 45.63018 -122.61005 29996 ft 450 kts
2026-04-24 05:14 45.69271 -122.60370 29996 ft 451 kts
2026-04-24 05:14 45.75524 -122.59994 30015 ft 449 kts 354°
2026-04-24 05:15 45.81665 -122.61315 29992 ft 450 kts 351°
2026-04-24 05:15 45.84740 -122.62030 29891 ft 442 kts 351°
2026-04-24 05:15 45.87719 -122.62721 29663 ft 425 kts 351°
2026-04-24 05:15 45.90600 -122.63389 29403 ft 414 kts 351°
2026-04-24 05:16 45.93410 -122.64038 29237 ft 402 kts 351°
2026-04-24 05:16 45.96101 -122.64661 29075 ft 385 kts 351°
2026-04-24 05:16 45.98705 -122.65263 28764 ft 374 kts 351°
2026-04-24 05:16 46.01205 -122.65842 28452 ft 364 kts 351°
2026-04-24 05:17 46.03682 -122.66415 28115 ft 356 kts 351°
2026-04-24 05:17 46.08635 -122.67560 27618 ft 381 kts 351°
2026-04-24 05:17 46.11287 -122.68154 27122 ft 390 kts 352°
2026-04-24 05:18 46.14002 -122.68682 26559 ft 395 kts 352°
2026-04-24 05:18 46.16718 -122.69208 26013 ft 393 kts 352°
2026-04-24 05:18 46.19416 -122.69733 25482 ft 390 kts 352°
2026-04-24 05:18 46.22089 -122.70257 24962 ft 386 kts 352°
2026-04-24 05:19 46.24744 -122.70780 24451 ft 383 kts 352°
2026-04-24 05:19 46.27343 -122.71294 23948 ft 380 kts 352°
2026-04-24 05:19 46.29953 -122.71811 23446 ft 377 kts 352°
2026-04-24 05:19 46.32540 -122.72322 22949 ft 373 kts 353°
2026-04-24 05:20 46.35123 -122.72487 22475 ft 371 kts 360°
2026-04-24 05:20 46.37698 -122.72513 21961 ft 369 kts 359°
2026-04-24 05:20 46.40250 -122.72573 21475 ft 366 kts 359°
2026-04-24 05:20 46.42783 -122.72641 20993 ft 363 kts 359°
2026-04-24 05:21 46.45297 -122.72712 20513 ft 360 kts 359°
2026-04-24 05:21 46.47796 -122.72795 20037 ft 357 kts 359°
2026-04-24 05:21 46.50241 -122.72875 19544 ft 355 kts 359°
2026-04-24 05:21 46.52698 -122.72961 19109 ft 352 kts 358°
2026-04-24 05:22 46.55146 -122.73050 18629 ft 351 kts 358°
2026-04-24 05:22 46.57575 -122.73137 18166 ft 348 kts 359°
2026-04-24 05:22 46.59990 -122.73222 17705 ft 346 kts 359°
2026-04-24 05:22 46.62391 -122.73309 17245 ft 344 kts 358°
2026-04-24 05:23 46.64775 -122.73395 16790 ft 341 kts 359°
2026-04-24 05:23 46.67142 -122.73481 16338 ft 339 kts 358°
2026-04-24 05:23 46.69494 -122.73568 15886 ft 337 kts 358°
2026-04-24 05:23 46.71827 -122.73653 15442 ft 335 kts 358°
2026-04-24 05:24 46.74114 -122.73738 15000 ft 332 kts 358°
2026-04-24 05:24 46.76411 -122.73809 14558 ft 327 kts
2026-04-24 05:24 46.78618 -122.73226 14140 ft 322 kts 21°
2026-04-24 05:24 46.80499 -122.71529 13732 ft 316 kts 38°
2026-04-24 05:25 46.82186 -122.69513 13282 ft 311 kts 39°
2026-04-24 05:25 46.83848 -122.67540 12884 ft 305 kts 39°
2026-04-24 05:25 46.85470 -122.65589 12483 ft 299 kts 42°
2026-04-24 05:25 46.86955 -122.63494 12081 ft 295 kts 44°
2026-04-24 05:26 46.88419 -122.61430 11689 ft 290 kts 44°
2026-04-24 05:26 46.89848 -122.59429 11314 ft 287 kts 44°
2026-04-24 05:26 46.91286 -122.57424 10931 ft 284 kts 44°
2026-04-24 05:26 46.92663 -122.55366 10566 ft 281 kts 46°
2026-04-24 05:27 46.94009 -122.53303 10191 ft 280 kts 46°
2026-04-24 05:27 46.95353 -122.51249 9822 ft 279 kts 46°
2026-04-24 05:27 46.96692 -122.49215 9442 ft 276 kts 46°
2026-04-24 05:27 46.98030 -122.47226 9089 ft 272 kts 40°
2026-04-24 05:28 46.99580 -122.45706 8724 ft 264 kts 30°
2026-04-24 05:28 47.01148 -122.44394 8359 ft 253 kts 30°
2026-04-24 05:28 47.02622 -122.43153 8034 ft 242 kts 30°
2026-04-24 05:28 47.04051 -122.41952 7727 ft 232 kts 30°
2026-04-24 05:29 47.05421 -122.40793 7432 ft 223 kts 30°
2026-04-24 05:29 47.06745 -122.39675 7134 ft 217 kts 30°
2026-04-24 05:29 47.08046 -122.38573 6749 ft 216 kts 30°
2026-04-24 05:29 47.09349 -122.37469 6348 ft 215 kts 30°
2026-04-24 05:30 47.10625 -122.36386 6079 ft 208 kts 30°
2026-04-24 05:30 47.11855 -122.35342 5882 ft 200 kts 30°
2026-04-24 05:30 47.13042 -122.34425 5776 ft 184 kts 20°
2026-04-24 05:30 47.14218 -122.33991 5598 ft 171 kts 11°
2026-04-24 05:31 47.15361 -122.33672 5366 ft 163 kts 12°
2026-04-24 05:31 47.16441 -122.33325 5220 ft 155 kts 13°
2026-04-24 05:31 47.17483 -122.32952 5124 ft 154 kts 14°
2026-04-24 05:31 47.18529 -122.32567 5008 ft 156 kts 14°
2026-04-24 05:32 47.19594 -122.32171 4833 ft 159 kts 14°
2026-04-24 05:32 47.20669 -122.31807 4623 ft 158 kts
2026-04-24 05:32 47.21762 -122.31779 4447 ft 156 kts 356°
2026-04-24 05:32 47.22844 -122.31863 4287 ft 155 kts 357°
2026-04-24 05:33 47.23920 -122.31915 4063 ft 153 kts 359°
2026-04-24 05:33 47.24953 -122.31936 3830 ft 148 kts 359°
2026-04-24 05:33 47.25962 -122.31943 3636 ft 143 kts 360°
2026-04-24 05:34 47.27937 -122.31951 3314 ft 143 kts 360°
2026-04-24 05:34 47.28937 -122.31939 3116 ft 144 kts
2026-04-24 05:34 47.29942 -122.31926 2902 ft 144 kts
2026-04-24 05:34 47.30934 -122.31925 2717 ft 142 kts 360°
2026-04-24 05:35 47.31922 -122.31917 2529 ft 142 kts
2026-04-24 05:35 47.32885 -122.31904 2369 ft 140 kts
2026-04-24 05:35 47.33860 -122.31895 2170 ft 141 kts
2026-04-24 05:35 47.34842 -122.31884 1960 ft 141 kts
2026-04-24 05:36 47.35820 -122.31876 1760 ft 140 kts
2026-04-24 05:36 47.36796 -122.31868 1563 ft 140 kts
2026-04-24 05:36 47.37761 -122.31859 1424 ft 137 kts 360°
2026-04-24 05:36 47.38714 -122.31871 1323 ft 137 kts 359°
2026-04-24 05:37 47.39662 -122.31883 1218 ft 136 kts 359°
2026-04-24 05:37 47.40630 -122.31885 1088 ft 140 kts
2026-04-24 05:37 47.41582 -122.31861 904 ft 139 kts
2026-04-24 05:37 47.42547 -122.31849 722 ft 140 kts
2026-04-24 05:38 47.43513 -122.31827 536 ft 140 kts
2026-04-24 05:38 47.44483 -122.31809 384 ft 133 kts
2026-04-24 05:38 47.45314 -122.31796 393 ft 101 kts 360°
2026-04-24 05:38 47.45725 -122.31778 407 ft 40 kts 17°
2026-04-24 05:39 47.45904 -122.31683 413 ft 21 kts 33°
2026-04-24 05:39 47.45990 -122.31545 417 ft 10 kts 66°
2026-04-24 05:39 47.45992 -122.31539 417 ft 0 kts 67°
2026-04-24 05:42 47.45995 -122.31530 415 ft 5 kts 67°
2026-04-24 05:42 47.46010 -122.31450 421 ft 8 kts 82°
2026-04-24 05:43 47.46011 -122.31443 421 ft 0 kts 83°
2026-04-24 05:45 47.46011 -122.31438 421 ft 5 kts 85°
2026-04-24 05:46 47.46012 -122.31388 423 ft 7 kts 92°
2026-04-24 05:46 47.46011 -122.31317 425 ft 8 kts 90°
2026-04-24 05:46 47.46011 -122.31165 430 ft 17 kts 90°
2026-04-24 05:46 47.46010 -122.30971 432 ft 13 kts 91°
2026-04-24 05:47 47.46010 -122.30829 433 ft 18 kts 90°
2026-04-24 05:47 47.46009 -122.30731 435 ft 4 kts 92°
2026-04-24 05:47 47.45990 -122.30636 428 ft 12 kts 131°
2026-04-24 05:47 47.45930 -122.30620 433 ft 18 kts 181°
2026-04-24 05:48 47.45751 -122.30620 431 ft 32 kts 182°
2026-04-24 05:48 47.45522 -122.30623 422 ft 30 kts 181°
2026-04-24 05:48 47.45305 -122.30624 418 ft 33 kts 180°
2026-04-24 05:48 47.45086 -122.30627 412 ft 21 kts 181°
2026-04-24 05:49 47.44868 -122.30629 405 ft 24 kts 180°
2026-04-24 05:49 47.44801 -122.30568 404 ft 8 kts 131°
2026-04-24 05:49 47.44751 -122.30541 403 ft 15 kts 176°
2026-04-24 05:49 47.44650 -122.30539 400 ft 14 kts 179°
2026-04-24 05:50 47.44539 -122.30540 397 ft 18 kts 182°
2026-04-24 05:50 47.44452 -122.30539 394 ft 1 kts 159°
2026-04-24 05:50 47.44451 -122.30513 394 ft 5 kts 77°
2026-04-24 05:50 47.44446 -122.30475 395 ft 6 kts 124°
2026-04-24 05:51 47.44434 -122.30453 395 ft 2 kts 129°
2026-04-24 05:51 47.44430 -122.30445 395 ft 1 kts 130°
2026-04-24 05:54 47.44429 -122.30445 395 ft 0 kts 130°